owner,sensor,date,latitude,longitude,vertical_datum,wind_speed,wind_to_direction,wind_speed_of_gust,qcFlag 
TCOON,ioos:station:TCOON:031:1,2017-04-01T00:00:00Z,28.4073,-96.7122,0.0,7.2,103.0,9.1,'11111222,11111222,11111222' 
TCOON,ioos:station:TCOON:031:1,2017-04-01T00:06:00Z,28.4073,-96.7122,0.0,7.1,113.0,9.8,'11111222,11111222,11111222' 
TCOON,ioos:station:TCOON:031:1,2017-04-01T00:12:00Z,28.4073,-96.7122,0.0,6.4,108.0,7.8,'11111222,11111222,11111222' 
TCOON,ioos:station:TCOON:031:1,2017-04-01T00:18:00Z,28.4073,-96.7122,0.0,6.4,108.0,7.8,'1111122,1111122,1111122' 
TCOON,ioos:station:TCOON:031:1,2017-04-01T00:24:00Z,28.4073,-96.7122,0.0,7.3,108.0,9.2,'11111222,11111222,11111222' 
TCOON,ioos:station:TCOON:031:1,2017-04-01T00:30:00Z,28.4073,-96.7122,0.0,6.7,107.0,9.3,'11111222,11111222,11111222' 
TCOON,ioos:station:TCOON:031:1,2017-04-01T00:36:00Z,28.4073,-96.7122,0.0,6.2,105.0,8.8,'11111222,11111222,11111222' 
TCOON,ioos:station:TCOON:031:1,2017-04-01T00:42:00Z,28.4073,-96.7122,0.0,4.9,103.0,8.0,'11111222,11111222,11111222' 
TCOON,ioos:station:TCOON:031:1,2017-04-01T00:48:00Z,28.4073,-96.7122,0.0,6.6,101.0,8.9,'11111222,11111222,11111222' 
TCOON,ioos:station:TCOON:031:1,2017-04-01T00:54:00Z,28.4073,-96.7122,0.0,5.9,100.0,7.4,'11111222,11111222,11111222' 
TCOON,ioos:station:TCOON:031:1,2017-04-01T01:00:00Z,28.4073,-96.7122,0.0,6.1,95.0,8.4,'11111222,11111222,11111222' 
TCOON,ioos:station:TCOON:031:1,2017-04-01T01:06:00Z,28.4073,-96.7122,0.0,5.8,95.0,8.8,'11111222,11111222,11111222' 
TCOON,ioos:station:TCOON:031:1,2017-04-01T01:12:00Z,28.4073,-96.7122,0.0,7.0,95.0,8.6,'11111222,11111222,11111222' 
TCOON,ioos:station:TCOON:031:1,2017-04-01T01:18:00Z,28.4073,-96.7122,0.0,6.1,100.0,8.1,'11111222,11111222,11111222' 
TCOON,ioos:station:TCOON:031:1,2017-04-01T01:24:00Z,28.4073,-96.7122,0.0,6.1,100.0,8.1,'1111122,1111122,1111122' 
TCOON,ioos:station:TCOON:031:1,2017-04-01T01:30:00Z,28.4073,-96.7122,0.0,5.8,94.0,7.7,'11111222,11111222,11111222' 
TCOON,ioos:station:TCOON:031:1,2017-04-01T01:36:00Z,28.4073,-96.7122,0.0,7.2,95.0,8.9,'11111222,11111222,11111222' 
TCOON,ioos:station:TCOON:031:1,2017-04-01T01:42:00Z,28.4073,-96.7122,0.0,6.3,96.0,7.9,'11111222,11111222,11111222' 
TCOON,ioos:station:TCOON:031:1,2017-04-01T01:48:00Z,28.4073,-96.7122,0.0,5.9,92.0,8.4,'11111222,11111222,11111222' 
TCOON,ioos:station:TCOON:031:1,2017-04-01T01:54:00Z,28.4073,-96.7122,0.0,5.9,93.0,8.3,'11111222,11111222,11111222' 
TCOON,ioos:station:TCOON:031:1,2017-04-01T02:00:00Z,28.4073,-96.7122,0.0,6.9,92.0,9.9,'11111222,11111222,11111222' 
TCOON,ioos:station:TCOON:031:1,2017-04-01T02:06:00Z,28.4073,-96.7122,0.0,6.5,87.0,8.5,'11111222,11111222,11111222' 
TCOON,ioos:station:TCOON:031:1,2017-04-01T02:12:00Z,28.4073,-96.7122,0.0,6.2,93.0,8.0,'11111222,11111222,11111222' 
TCOON,ioos:station:TCOON:031:1,2017-04-01T02:18:00Z,28.4073,-96.7122,0.0,6.2,93.0,8.0,'1111122,1111122,1111122' 
TCOON,ioos:station:TCOON:031:1,2017-04-01T02:24:00Z,28.4073,-96.7122,0.0,5.9,100.0,8.3,'11111222,11111222,11111222' 
TCOON,ioos:station:TCOON:031:1,2017-04-01T02:30:00Z,28.4073,-96.7122,0.0,6.2,101.0,9.0,'11111222,11111222,11111222' 
TCOON,ioos:station:TCOON:031:1,2017-04-01T02:36:00Z,28.4073,-96.7122,0.0,6.6,96.0,9.5,'11111222,11111222,11111222' 
TCOON,ioos:station:TCOON:031:1,2017-04-01T02:42:00Z,28.4073,-96.7122,0.0,5.7,99.0,9.7,'11111222,11111222,11111222' 
TCOON,ioos:station:TCOON:031:1,2017-04-01T02:48:00Z,28.4073,-96.7122,0.0,5.8,111.0,7.4,'11111222,11111222,11111222' 
TCOON,ioos:station:TCOON:031:1,2017-04-01T02:54:00Z,28.4073,-96.7122,0.0,6.7,111.0,8.3,'11111222,11111222,11111222' 
TCOON,ioos:station:TCOON:031:1,2017-04-01T03:00:00Z,28.4073,-96.7122,0.0,7.6,109.0,10.2,'11111222,11111222,11111222' 
TCOON,ioos:station:TCOON:031:1,2017-04-01T03:06:00Z,28.4073,-96.7122,0.0,6.5,107.0,8.6,'11111222,11111222,11111222' 
TCOON,ioos:station:TCOON:031:1,2017-04-01T03:12:00Z,28.4073,-96.7122,0.0,6.8,105.0,8.5,'11111222,11111222,11111222' 
TCOON,ioos:station:TCOON:031:1,2017-04-01T03:18:00Z,28.4073,-96.7122,0.0,6.8,105.0,8.5,'1111122,1111122,1111122' 
TCOON,ioos:station:TCOON:031:1,2017-04-01T03:24:00Z,28.4073,-96.7122,0.0,6.7,111.0,9.9,'11111222,11111222,11111222' 
TCOON,ioos:station:TCOON:031:1,2017-04-01T03:30:00Z,28.4073,-96.7122,0.0,7.4,113.0,9.5,'11111222,11111222,11111222' 
TCOON,ioos:station:TCOON:031:1,2017-04-01T03:36:00Z,28.4073,-96.7122,0.0,6.7,115.0,9.1,'11111222,11111222,11111222' 
TCOON,ioos:station:TCOON:031:1,2017-04-01T03:42:00Z,28.4073,-96.7122,0.0,6.5,112.0,8.8,'11111222,11111222,11111222' 
TCOON,ioos:station:TCOON:031:1,2017-04-01T03:48:00Z,28.4073,-96.7122,0.0,7.5,113.0,9.5,'11111222,11111222,11111222' 
TCOON,ioos:station:TCOON:031:1,2017-04-01T03:54:00Z,28.4073,-96.7122,0.0,6.8,111.0,8.9,'11111222,11111222,11111222' 
TCOON,ioos:station:TCOON:031:1,2017-04-01T04:00:00Z,28.4073,-96.7122,0.0,6.5,108.0,8.7,'11111222,11111222,11111222' 
TCOON,ioos:station:TCOON:031:1,2017-04-01T04:06:00Z,28.4073,-96.7122,0.0,5.6,108.0,8.2,'11111222,11111222,11111222' 
TCOON,ioos:station:TCOON:031:1,2017-04-01T04:12:00Z,28.4073,-96.7122,0.0,6.3,106.0,7.8,'11111222,11111222,11111222' 
TCOON,ioos:station:TCOON:031:1,2017-04-01T04:18:00Z,28.4073,-96.7122,0.0,6.3,106.0,7.8,'1111122,1111122,1111122' 
TCOON,ioos:station:TCOON:031:1,2017-04-01T04:24:00Z,28.4073,-96.7122,0.0,6.8,105.0,8.4,'11111222,11111222,11111222' 
TCOON,ioos:station:TCOON:031:1,2017-04-01T04:30:00Z,28.4073,-96.7122,0.0,5.7,106.0,7.5,'11111222,11111222,11111222' 
TCOON,ioos:station:TCOON:031:1,2017-04-01T04:36:00Z,28.4073,-96.7122,0.0,6.2,106.0,7.8,'11111222,11111222,11111222' 
TCOON,ioos:station:TCOON:031:1,2017-04-01T04:42:00Z,28.4073,-96.7122,0.0,6.1,104.0,8.8,'11111222,11111222,11111222' 
TCOON,ioos:station:TCOON:031:1,2017-04-01T04:48:00Z,28.4073,-96.7122,0.0,6.0,104.0,7.9,'11111222,11111222,11111222' 
TCOON,ioos:station:TCOON:031:1,2017-04-01T04:54:00Z,28.4073,-96.7122,0.0,6.1,102.0,8.0,'11111222,11111222,11111222' 
TCOON,ioos:station:TCOON:031:1,2017-04-01T05:00:00Z,28.4073,-96.7122,0.0,5.7,105.0,7.6,'11111222,11111222,11111222' 
TCOON,ioos:station:TCOON:031:1,2017-04-01T05:06:00Z,28.4073,-96.7122,0.0,6.4,108.0,8.8,'11111222,11111222,11111222' 
TCOON,ioos:station:TCOON:031:1,2017-04-01T05:12:00Z,28.4073,-96.7122,0.0,5.7,103.0,7.0,'11111222,11111222,11111222' 
TCOON,ioos:station:TCOON:031:1,2017-04-01T05:18:00Z,28.4073,-96.7122,0.0,5.7,103.0,7.0,'1111122,1111122,1111122' 
TCOON,ioos:station:TCOON:031:1,2017-04-01T05:24:00Z,28.4073,-96.7122,0.0,6.6,104.0,8.4,'11111222,11111222,11111222' 
TCOON,ioos:station:TCOON:031:1,2017-04-01T05:30:00Z,28.4073,-96.7122,0.0,6.3,106.0,7.8,'11111222,11111222,11111222' 
TCOON,ioos:station:TCOON:031:1,2017-04-01T05:36:00Z,28.4073,-96.7122,0.0,5.9,101.0,8.2,'11111222,11111222,11111222' 
TCOON,ioos:station:TCOON:031:1,2017-04-01T05:42:00Z,28.4073,-96.7122,0.0,5.2,103.0,8.1,'11111222,11111222,11111222' 
TCOON,ioos:station:TCOON:031:1,2017-04-01T05:48:00Z,28.4073,-96.7122,0.0,5.6,103.0,7.9,'11111222,11111222,11111222' 
TCOON,ioos:station:TCOON:031:1,2017-04-01T05:54:00Z,28.4073,-96.7122,0.0,5.6,104.0,8.1,'11111222,11111222,11111222' 
TCOON,ioos:station:TCOON:031:1,2017-04-01T06:00:00Z,28.4073,-96.7122,0.0,5.5,104.0,8.3,'11111222,11111222,11111222' 
TCOON,ioos:station:TCOON:031:1,2017-04-01T06:06:00Z,28.4073,-96.7122,0.0,6.8,106.0,9.3,'11111222,11111222,11111222' 
TCOON,ioos:station:TCOON:031:1,2017-04-01T06:12:00Z,28.4073,-96.7122,0.0,6.9,103.0,8.5,'11111222,11111222,11111222' 
TCOON,ioos:station:TCOON:031:1,2017-04-01T06:18:00Z,28.4073,-96.7122,0.0,6.9,103.0,8.5,'1111122,1111122,1111122' 
TCOON,ioos:station:TCOON:031:1,2017-04-01T06:24:00Z,28.4073,-96.7122,0.0,6.1,106.0,9.1,'11111222,11111222,11111222' 
TCOON,ioos:station:TCOON:031:1,2017-04-01T06:30:00Z,28.4073,-96.7122,0.0,6.2,105.0,7.5,'11111222,11111222,11111222' 
TCOON,ioos:station:TCOON:031:1,2017-04-01T06:36:00Z,28.4073,-96.7122,0.0,7.6,109.0,8.9,'11111222,11111222,11111222' 
TCOON,ioos:station:TCOON:031:1,2017-04-01T06:42:00Z,28.4073,-96.7122,0.0,6.7,107.0,8.8,'11111222,11111222,11111222' 
TCOON,ioos:station:TCOON:031:1,2017-04-01T06:48:00Z,28.4073,-96.7122,0.0,7.1,106.0,8.5,'11111222,11111222,11111222' 
TCOON,ioos:station:TCOON:031:1,2017-04-01T06:54:00Z,28.4073,-96.7122,0.0,7.3,107.0,9.1,'11111222,11111222,11111222' 
TCOON,ioos:station:TCOON:031:1,2017-04-01T07:00:00Z,28.4073,-96.7122,0.0,6.7,107.0,9.2,'11111222,11111222,11111222' 
TCOON,ioos:station:TCOON:031:1,2017-04-01T07:06:00Z,28.4073,-96.7122,0.0,6.5,105.0,8.9,'11111222,11111222,11111222' 
TCOON,ioos:station:TCOON:031:1,2017-04-01T07:12:00Z,28.4073,-96.7122,0.0,7.0,107.0,9.5,'11111222,11111222,11111222' 
TCOON,ioos:station:TCOON:031:1,2017-04-01T07:18:00Z,28.4073,-96.7122,0.0,7.0,107.0,9.5,'1111122,1111122,1111122' 
TCOON,ioos:station:TCOON:031:1,2017-04-01T07:24:00Z,28.4073,-96.7122,0.0,6.9,107.0,9.3,'11111222,11111222,11111222' 
TCOON,ioos:station:TCOON:031:1,2017-04-01T07:30:00Z,28.4073,-96.7122,0.0,7.7,106.0,10.4,'11111222,11111222,11111222' 
TCOON,ioos:station:TCOON:031:1,2017-04-01T07:36:00Z,28.4073,-96.7122,0.0,7.6,108.0,9.6,'11111222,11111222,11111222' 
TCOON,ioos:station:TCOON:031:1,2017-04-01T07:42:00Z,28.4073,-96.7122,0.0,7.3,110.0,10.6,'11111222,11111222,11111222' 
TCOON,ioos:station:TCOON:031:1,2017-04-01T07:48:00Z,28.4073,-96.7122,0.0,6.7,106.0,10.5,'11111222,11111222,11111222' 
TCOON,ioos:station:TCOON:031:1,2017-04-01T07:54:00Z,28.4073,-96.7122,0.0,7.6,106.0,9.9,'11111222,11111222,11111222' 
TCOON,ioos:station:TCOON:031:1,2017-04-01T08:00:00Z,28.4073,-96.7122,0.0,6.1,108.0,10.8,'11111222,11111222,11111222' 
TCOON,ioos:station:TCOON:031:1,2017-04-01T08:06:00Z,28.4073,-96.7122,0.0,8.0,113.0,9.3,'11111222,11111222,11111222' 
TCOON,ioos:station:TCOON:031:1,2017-04-01T08:12:00Z,28.4073,-96.7122,0.0,7.4,110.0,9.6,'11111222,11111222,11111222' 
TCOON,ioos:station:TCOON:031:1,2017-04-01T08:18:00Z,28.4073,-96.7122,0.0,8.1,107.0,10.0,'11111222,11111222,11111222' 
TCOON,ioos:station:TCOON:031:1,2017-04-01T08:24:00Z,28.4073,-96.7122,0.0,7.4,112.0,10.3,'11111222,11111222,11111222' 
TCOON,ioos:station:TCOON:031:1,2017-04-01T08:30:00Z,28.4073,-96.7122,0.0,7.4,112.0,10.3,'1111122,1111122,1111122' 
TCOON,ioos:station:TCOON:031:1,2017-04-01T08:36:00Z,28.4073,-96.7122,0.0,7.6,109.0,9.5,'11111222,11111222,11111222' 
TCOON,ioos:station:TCOON:031:1,2017-04-01T08:42:00Z,28.4073,-96.7122,0.0,6.8,112.0,9.1,'11111222,11111222,11111222' 
TCOON,ioos:station:TCOON:031:1,2017-04-01T08:48:00Z,28.4073,-96.7122,0.0,6.2,117.0,8.3,'11111222,11111222,11111222' 
TCOON,ioos:station:TCOON:031:1,2017-04-01T08:54:00Z,28.4073,-96.7122,0.0,6.1,115.0,7.6,'11111222,11111222,11111222' 
TCOON,ioos:station:TCOON:031:1,2017-04-01T09:00:00Z,28.4073,-96.7122,0.0,7.4,114.0,9.4,'11111222,11111222,11111222' 
TCOON,ioos:station:TCOON:031:1,2017-04-01T09:06:00Z,28.4073,-96.7122,0.0,6.4,115.0,8.1,'11111222,11111222,11111222' 
TCOON,ioos:station:TCOON:031:1,2017-04-01T09:12:00Z,28.4073,-96.7122,0.0,6.5,112.0,8.1,'11111222,11111222,11111222' 
TCOON,ioos:station:TCOON:031:1,2017-04-01T09:18:00Z,28.4073,-96.7122,0.0,6.5,112.0,8.1,'1111122,1111122,1111122' 
TCOON,ioos:station:TCOON:031:1,2017-04-01T09:24:00Z,28.4073,-96.7122,0.0,6.8,113.0,8.6,'11111222,11111222,11111222' 
TCOON,ioos:station:TCOON:031:1,2017-04-01T09:30:00Z,28.4073,-96.7122,0.0,7.3,121.0,8.7,'11111222,11111222,11111222' 
TCOON,ioos:station:TCOON:031:1,2017-04-01T09:36:00Z,28.4073,-96.7122,0.0,7.1,119.0,9.6,'11111222,11111222,11111222' 
TCOON,ioos:station:TCOON:031:1,2017-04-01T09:42:00Z,28.4073,-96.7122,0.0,8.3,122.0,10.4,'11111222,11111222,11111222' 
TCOON,ioos:station:TCOON:031:1,2017-04-01T09:48:00Z,28.4073,-96.7122,0.0,6.8,118.0,9.5,'11111222,11111222,11111222' 
TCOON,ioos:station:TCOON:031:1,2017-04-01T09:54:00Z,28.4073,-96.7122,0.0,7.6,120.0,9.6,'11111222,11111222,11111222' 
TCOON,ioos:station:TCOON:031:1,2017-04-01T10:00:00Z,28.4073,-96.7122,0.0,7.3,117.0,9.1,'11111222,11111222,11111222' 
TCOON,ioos:station:TCOON:031:1,2017-04-01T10:06:00Z,28.4073,-96.7122,0.0,7.1,117.0,8.8,'11111222,11111222,11111222' 
TCOON,ioos:station:TCOON:031:1,2017-04-01T10:12:00Z,28.4073,-96.7122,0.0,6.7,114.0,8.5,'11111222,11111222,11111222' 
TCOON,ioos:station:TCOON:031:1,2017-04-01T10:18:00Z,28.4073,-96.7122,0.0,6.7,114.0,8.5,'1111122,1111122,1111122' 
TCOON,ioos:station:TCOON:031:1,2017-04-01T10:24:00Z,28.4073,-96.7122,0.0,6.1,116.0,10.0,'11111222,11111222,11111222' 
TCOON,ioos:station:TCOON:031:1,2017-04-01T10:30:00Z,28.4073,-96.7122,0.0,6.9,117.0,8.6,'11111222,11111222,11111222' 
TCOON,ioos:station:TCOON:031:1,2017-04-01T10:36:00Z,28.4073,-96.7122,0.0,7.6,119.0,8.9,'11111222,11111222,11111222' 
TCOON,ioos:station:TCOON:031:1,2017-04-01T10:42:00Z,28.4073,-96.7122,0.0,6.6,117.0,8.7,'11111222,11111222,11111222' 
TCOON,ioos:station:TCOON:031:1,2017-04-01T10:48:00Z,28.4073,-96.7122,0.0,6.0,117.0,7.9,'11111222,11111222,11111222' 
TCOON,ioos:station:TCOON:031:1,2017-04-01T10:54:00Z,28.4073,-96.7122,0.0,5.9,115.0,8.0,'11111222,11111222,11111222' 
TCOON,ioos:station:TCOON:031:1,2017-04-01T11:00:00Z,28.4073,-96.7122,0.0,5.1,109.0,7.1,'11111222,11111222,11111222' 
TCOON,ioos:station:TCOON:031:1,2017-04-01T11:06:00Z,28.4073,-96.7122,0.0,5.8,107.0,7.3,'11111222,11111222,11111222' 
TCOON,ioos:station:TCOON:031:1,2017-04-01T11:12:00Z,28.4073,-96.7122,0.0,5.2,108.0,6.7,'11111222,11111222,11111222' 
TCOON,ioos:station:TCOON:031:1,2017-04-01T11:18:00Z,28.4073,-96.7122,0.0,5.2,108.0,6.7,'1111122,1111122,1111122' 
TCOON,ioos:station:TCOON:031:1,2017-04-01T11:24:00Z,28.4073,-96.7122,0.0,5.0,106.0,6.9,'11111222,11111222,11111222' 
TCOON,ioos:station:TCOON:031:1,2017-04-01T11:30:00Z,28.4073,-96.7122,0.0,6.0,105.0,8.4,'11111222,11111222,11111222' 
TCOON,ioos:station:TCOON:031:1,2017-04-01T11:36:00Z,28.4073,-96.7122,0.0,5.3,105.0,7.8,'11111222,11111222,11111222' 
TCOON,ioos:station:TCOON:031:1,2017-04-01T11:42:00Z,28.4073,-96.7122,0.0,6.4,107.0,8.1,'11111222,11111222,11111222' 
TCOON,ioos:station:TCOON:031:1,2017-04-01T11:48:00Z,28.4073,-96.7122,0.0,6.4,101.0,8.4,'11111222,11111222,11111222' 
TCOON,ioos:station:TCOON:031:1,2017-04-01T11:54:00Z,28.4073,-96.7122,0.0,5.7,101.0,8.5,'11111222,11111222,11111222' 
TCOON,ioos:station:TCOON:031:1,2017-04-01T12:00:00Z,28.4073,-96.7122,0.0,5.4,106.0,7.3,'11111222,11111222,11111222' 
TCOON,ioos:station:TCOON:031:1,2017-04-01T12:06:00Z,28.4073,-96.7122,0.0,5.6,104.0,6.7,'11111222,11111222,11111222' 
TCOON,ioos:station:TCOON:031:1,2017-04-01T12:12:00Z,28.4073,-96.7122,0.0,5.2,106.0,7.6,'11111222,11111222,11111222' 
TCOON,ioos:station:TCOON:031:1,2017-04-01T12:18:00Z,28.4073,-96.7122,0.0,5.2,106.0,7.6,'1111122,1111122,1111122' 
TCOON,ioos:station:TCOON:031:1,2017-04-01T12:24:00Z,28.4073,-96.7122,0.0,5.6,108.0,7.2,'11111222,11111222,11111222' 
TCOON,ioos:station:TCOON:031:1,2017-04-01T12:30:00Z,28.4073,-96.7122,0.0,6.1,112.0,7.7,'11111222,11111222,11111222' 
TCOON,ioos:station:TCOON:031:1,2017-04-01T12:36:00Z,28.4073,-96.7122,0.0,5.6,113.0,7.8,'11111222,11111222,11111222' 
TCOON,ioos:station:TCOON:031:1,2017-04-01T12:42:00Z,28.4073,-96.7122,0.0,5.9,113.0,8.3,'11111222,11111222,11111222' 
TCOON,ioos:station:TCOON:031:1,2017-04-01T12:48:00Z,28.4073,-96.7122,0.0,5.8,111.0,7.7,'11111222,11111222,11111222' 
TCOON,ioos:station:TCOON:031:1,2017-04-01T12:54:00Z,28.4073,-96.7122,0.0,5.7,112.0,7.5,'11111222,11111222,11111222' 
TCOON,ioos:station:TCOON:031:1,2017-04-01T13:00:00Z,28.4073,-96.7122,0.0,6.4,110.0,8.0,'11111222,11111222,11111222' 
TCOON,ioos:station:TCOON:031:1,2017-04-01T13:06:00Z,28.4073,-96.7122,0.0,6.9,107.0,10.2,'11111222,11111222,11111222' 
TCOON,ioos:station:TCOON:031:1,2017-04-01T13:12:00Z,28.4073,-96.7122,0.0,7.0,113.0,9.0,'11111222,11111222,11111222' 
TCOON,ioos:station:TCOON:031:1,2017-04-01T13:18:00Z,28.4073,-96.7122,0.0,7.0,113.0,9.0,'1111122,1111122,1111122' 
TCOON,ioos:station:TCOON:031:1,2017-04-01T13:24:00Z,28.4073,-96.7122,0.0,5.9,113.0,8.7,'11111222,11111222,11111222' 
TCOON,ioos:station:TCOON:031:1,2017-04-01T13:30:00Z,28.4073,-96.7122,0.0,6.8,107.0,9.5,'11111222,11111222,11111222' 
TCOON,ioos:station:TCOON:031:1,2017-04-01T13:36:00Z,28.4073,-96.7122,0.0,7.1,110.0,9.6,'11111222,11111222,11111222' 
TCOON,ioos:station:TCOON:031:1,2017-04-01T13:42:00Z,28.4073,-96.7122,0.0,7.8,106.0,10.5,'11111222,11111222,11111222' 
TCOON,ioos:station:TCOON:031:1,2017-04-01T13:48:00Z,28.4073,-96.7122,0.0,6.5,101.0,9.6,'11111222,11111222,11111222' 
TCOON,ioos:station:TCOON:031:1,2017-04-01T13:54:00Z,28.4073,-96.7122,0.0,6.7,102.0,10.1,'11111222,11111222,11111222' 
TCOON,ioos:station:TCOON:031:1,2017-04-01T14:00:00Z,28.4073,-96.7122,0.0,8.2,105.0,9.7,'11111222,11111222,11111222' 
TCOON,ioos:station:TCOON:031:1,2017-04-01T14:06:00Z,28.4073,-96.7122,0.0,7.2,105.0,9.4,'11111222,11111222,11111222' 
TCOON,ioos:station:TCOON:031:1,2017-04-01T14:12:00Z,28.4073,-96.7122,0.0,6.8,100.0,8.7,'11111222,11111222,11111222' 
TCOON,ioos:station:TCOON:031:1,2017-04-01T14:18:00Z,28.4073,-96.7122,0.0,6.8,100.0,8.7,'1111122,1111122,1111122' 
TCOON,ioos:station:TCOON:031:1,2017-04-01T14:24:00Z,28.4073,-96.7122,0.0,6.4,107.0,9.0,'11111222,11111222,11111222' 
TCOON,ioos:station:TCOON:031:1,2017-04-01T14:30:00Z,28.4073,-96.7122,0.0,7.4,105.0,9.6,'11111222,11111222,11111222' 
TCOON,ioos:station:TCOON:031:1,2017-04-01T14:36:00Z,28.4073,-96.7122,0.0,9.1,105.0,11.8,'11111222,11111222,11111222' 
TCOON,ioos:station:TCOON:031:1,2017-04-01T14:42:00Z,28.4073,-96.7122,0.0,8.4,110.0,11.0,'11111222,11111222,11111222' 
TCOON,ioos:station:TCOON:031:1,2017-04-01T14:48:00Z,28.4073,-96.7122,0.0,8.3,110.0,10.4,'11111222,11111222,11111222' 
TCOON,ioos:station:TCOON:031:1,2017-04-01T14:54:00Z,28.4073,-96.7122,0.0,9.3,107.0,12.2,'11111222,11111222,11111222' 
TCOON,ioos:station:TCOON:031:1,2017-04-01T15:00:00Z,28.4073,-96.7122,0.0,8.5,115.0,11.5,'11111222,11111222,11111222' 
TCOON,ioos:station:TCOON:031:1,2017-04-01T15:06:00Z,28.4073,-96.7122,0.0,9.3,108.0,12.0,'11111222,11111222,11111222' 
TCOON,ioos:station:TCOON:031:1,2017-04-01T15:12:00Z,28.4073,-96.7122,0.0,9.1,115.0,12.9,'11111222,11111222,11111222' 
TCOON,ioos:station:TCOON:031:1,2017-04-01T15:18:00Z,28.4073,-96.7122,0.0,9.1,115.0,12.9,'1111122,1111122,1111122' 
TCOON,ioos:station:TCOON:031:1,2017-04-01T15:24:00Z,28.4073,-96.7122,0.0,7.9,117.0,11.7,'11111222,11111222,11111222' 
TCOON,ioos:station:TCOON:031:1,2017-04-01T15:30:00Z,28.4073,-96.7122,0.0,10.2,109.0,12.5,'11111222,11111222,11111222' 
TCOON,ioos:station:TCOON:031:1,2017-04-01T15:36:00Z,28.4073,-96.7122,0.0,9.0,106.0,13.3,'11111222,11111222,11111222' 
TCOON,ioos:station:TCOON:031:1,2017-04-01T15:42:00Z,28.4073,-96.7122,0.0,7.5,111.0,11.9,'11111222,11111222,11111222' 
TCOON,ioos:station:TCOON:031:1,2017-04-01T15:48:00Z,28.4073,-96.7122,0.0,8.2,103.0,10.1,'11111222,11111222,11111222' 
TCOON,ioos:station:TCOON:031:1,2017-04-01T15:54:00Z,28.4073,-96.7122,0.0,8.7,109.0,11.4,'11111222,11111222,11111222' 
TCOON,ioos:station:TCOON:031:1,2017-04-01T16:00:00Z,28.4073,-96.7122,0.0,9.3,114.0,11.9,'11111222,11111222,11111222' 
TCOON,ioos:station:TCOON:031:1,2017-04-01T16:06:00Z,28.4073,-96.7122,0.0,8.4,118.0,9.9,'11111222,11111222,11111222' 
TCOON,ioos:station:TCOON:031:1,2017-04-01T16:12:00Z,28.4073,-96.7122,0.0,8.7,119.0,12.1,'11111222,11111222,11111222' 
TCOON,ioos:station:TCOON:031:1,2017-04-01T16:18:00Z,28.4073,-96.7122,0.0,8.7,119.0,12.1,'1111122,1111122,1111122' 
TCOON,ioos:station:TCOON:031:1,2017-04-01T16:24:00Z,28.4073,-96.7122,0.0,7.3,106.0,10.5,'11111222,11111222,11111222' 
TCOON,ioos:station:TCOON:031:1,2017-04-01T16:30:00Z,28.4073,-96.7122,0.0,8.2,105.0,10.4,'11111222,11111222,11111222' 
TCOON,ioos:station:TCOON:031:1,2017-04-01T16:36:00Z,28.4073,-96.7122,0.0,8.8,111.0,11.1,'11111222,11111222,11111222' 
TCOON,ioos:station:TCOON:031:1,2017-04-01T16:42:00Z,28.4073,-96.7122,0.0,8.4,103.0,11.9,'11111222,11111222,11111222' 
TCOON,ioos:station:TCOON:031:1,2017-04-01T16:48:00Z,28.4073,-96.7122,0.0,10.7,115.0,13.1,'11111222,11111222,11111222' 
TCOON,ioos:station:TCOON:031:1,2017-04-01T16:54:00Z,28.4073,-96.7122,0.0,9.4,116.0,12.9,'11111222,11111222,11111222' 
TCOON,ioos:station:TCOON:031:1,2017-04-01T17:00:00Z,28.4073,-96.7122,0.0,9.0,120.0,12.2,'11111222,11111222,11111222' 
TCOON,ioos:station:TCOON:031:1,2017-04-01T17:06:00Z,28.4073,-96.7122,0.0,7.1,105.0,11.6,'11111222,11111222,11111222' 
TCOON,ioos:station:TCOON:031:1,2017-04-01T17:12:00Z,28.4073,-96.7122,0.0,9.1,110.0,11.4,'11111222,11111222,11111222' 
TCOON,ioos:station:TCOON:031:1,2017-04-01T17:18:00Z,28.4073,-96.7122,0.0,9.1,110.0,11.4,'1111122,1111122,1111122' 
TCOON,ioos:station:TCOON:031:1,2017-04-01T17:24:00Z,28.4073,-96.7122,0.0,9.3,122.0,10.8,'11111222,11111222,11111222' 
TCOON,ioos:station:TCOON:031:1,2017-04-01T17:30:00Z,28.4073,-96.7122,0.0,6.3,108.0,10.1,'11111222,11111222,11111222' 
TCOON,ioos:station:TCOON:031:1,2017-04-01T17:36:00Z,28.4073,-96.7122,0.0,8.1,116.0,13.0,'11111222,11111222,11111222' 
TCOON,ioos:station:TCOON:031:1,2017-04-01T17:42:00Z,28.4073,-96.7122,0.0,7.5,102.0,11.0,'11111222,11111222,11111222' 
TCOON,ioos:station:TCOON:031:1,2017-04-01T17:48:00Z,28.4073,-96.7122,0.0,9.2,112.0,12.0,'11111222,11111222,11111222' 
TCOON,ioos:station:TCOON:031:1,2017-04-01T17:54:00Z,28.4073,-96.7122,0.0,8.2,114.0,10.9,'11111222,11111222,11111222' 
TCOON,ioos:station:TCOON:031:1,2017-04-01T18:00:00Z,28.4073,-96.7122,0.0,8.2,106.0,10.9,'11111222,11111222,11111222' 
TCOON,ioos:station:TCOON:031:1,2017-04-01T18:06:00Z,28.4073,-96.7122,0.0,8.9,112.0,11.1,'11111222,11111222,11111222' 
TCOON,ioos:station:TCOON:031:1,2017-04-01T18:12:00Z,28.4073,-96.7122,0.0,8.3,106.0,11.7,'11111222,11111222,11111222' 
TCOON,ioos:station:TCOON:031:1,2017-04-01T18:18:00Z,28.4073,-96.7122,0.0,8.4,108.0,11.4,'11111222,11111222,11111222' 
TCOON,ioos:station:TCOON:031:1,2017-04-01T18:24:00Z,28.4073,-96.7122,0.0,8.4,108.0,11.4,'1111122,1111122,1111122' 
TCOON,ioos:station:TCOON:031:1,2017-04-01T18:30:00Z,28.4073,-96.7122,0.0,8.6,95.0,11.3,'11111222,11111222,11111222' 
TCOON,ioos:station:TCOON:031:1,2017-04-01T18:36:00Z,28.4073,-96.7122,0.0,8.4,112.0,11.1,'11111222,11111222,11111222' 
TCOON,ioos:station:TCOON:031:1,2017-04-01T18:42:00Z,28.4073,-96.7122,0.0,8.1,110.0,10.3,'11111222,11111222,11111222' 
TCOON,ioos:station:TCOON:031:1,2017-04-01T18:48:00Z,28.4073,-96.7122,0.0,7.8,95.0,10.7,'11111222,11111222,11111222' 
TCOON,ioos:station:TCOON:031:1,2017-04-01T18:54:00Z,28.4073,-96.7122,0.0,8.7,107.0,10.7,'11111222,11111222,11111222' 
TCOON,ioos:station:TCOON:031:1,2017-04-01T19:00:00Z,28.4073,-96.7122,0.0,7.8,98.0,10.0,'11111222,11111222,11111222' 
TCOON,ioos:station:TCOON:031:1,2017-04-01T19:06:00Z,28.4073,-96.7122,0.0,7.1,96.0,10.5,'11111222,11111222,11111222' 
TCOON,ioos:station:TCOON:031:1,2017-04-01T19:12:00Z,28.4073,-96.7122,0.0,8.5,101.0,11.5,'11111222,11111222,11111222' 
TCOON,ioos:station:TCOON:031:1,2017-04-01T19:18:00Z,28.4073,-96.7122,0.0,8.5,101.0,11.5,'1111122,1111122,1111122' 
TCOON,ioos:station:TCOON:031:1,2017-04-01T19:24:00Z,28.4073,-96.7122,0.0,10.2,107.0,13.1,'11111222,11111222,11111222' 
TCOON,ioos:station:TCOON:031:1,2017-04-01T19:30:00Z,28.4073,-96.7122,0.0,8.0,105.0,11.4,'11111222,11111222,11111222' 
TCOON,ioos:station:TCOON:031:1,2017-04-01T19:36:00Z,28.4073,-96.7122,0.0,9.3,108.0,11.6,'11111222,11111222,11111222' 
TCOON,ioos:station:TCOON:031:1,2017-04-01T19:42:00Z,28.4073,-96.7122,0.0,9.4,105.0,13.1,'11111222,11111222,11111222' 
TCOON,ioos:station:TCOON:031:1,2017-04-01T19:48:00Z,28.4073,-96.7122,0.0,9.3,106.0,11.1,'11111222,11111222,11111222' 
TCOON,ioos:station:TCOON:031:1,2017-04-01T19:54:00Z,28.4073,-96.7122,0.0,8.0,103.0,10.7,'11111222,11111222,11111222' 
TCOON,ioos:station:TCOON:031:1,2017-04-01T20:00:00Z,28.4073,-96.7122,0.0,7.1,107.0,11.4,'11111222,11111222,11111222' 
TCOON,ioos:station:TCOON:031:1,2017-04-01T20:06:00Z,28.4073,-96.7122,0.0,8.4,104.0,11.6,'11111222,11111222,11111222' 
TCOON,ioos:station:TCOON:031:1,2017-04-01T20:12:00Z,28.4073,-96.7122,0.0,8.3,94.0,11.9,'11111222,11111222,11111222' 
TCOON,ioos:station:TCOON:031:1,2017-04-01T20:18:00Z,28.4073,-96.7122,0.0,8.3,94.0,11.9,'1111122,1111122,1111122' 